Weather History for Mount Pleasant, IA

Change the Weather History Date:

Sunday, April 14, 2013

  Actual Average Record
Temperature  
Mean Temperature 65 °F -  
Max Temperature 81 °F 59 °F 87 °F (2006)
Min Temperature 49 °F 40 °F 22 °F (1950)
Growing Degree Days 15 (Base 50)    
Moisture  
Dew Point 40 °F    
Average Humidity 46    
Maximum Humidity 73    
Minimum Humidity 16    
Precipitation  
Precipitation 0.00 in - - ()
Sea Level Pressure  
Sea Level Pressure 29.66 in    
Wind  
Wind Speed 13 mph (SE)    
Max Wind Speed 29 mph    
Max Gust Speed 38 mph    
Visibility 10 miles    
Events Rain    
Averages and records for this station are not official NWS values.
T = Trace of Precipitation, MM = Missing Value Source: NWS Daily Summary

Daily Weather History Graph

Daily Weather History Graph

Search for Another Location

Airport:

Trip Planner

Search our weather history database for the weather conditions in past years. The results will help you decide how hot, cold, wet, or windy it might be!

Date:

Astronomy

Apr. 14, 2013 Rise Set
Actual Time 6:28 AM CDT 7:45 PM CDT
Civil Twilight 5:59 AM CDT 8:13 PM CDT
Nautical Twilight 5:25 AM CDT 8:47 PM CDT
Astronomical Twilight 4:49 AM CDT 9:23 PM CDT
Moon 9:03 AM CDT (4/14) 11:59 PM CDT (4/14)
Length of Visible Light 14h 13m
Length of Day
13h 16m
Waxing Crescent, 17% of the Moon is Illuminated
Apr 14
Waxing Crescent
Apr 18
First Quarter
Apr 25
Full
May 2
Last Quarter
May 9
New

Hourly Weather History & Observations

Time (CDT) Temp. Dew Point Humidity Pressure Visibility Wind Dir Wind Speed Gust Speed Precip Events Conditions
12:15 AM 49.5 °F 38.1 °F 65% 29.90 in 7.0 mi ESE 8.1 mph - N/A Rain Light Rain
12:35 AM 49.6 °F 37.9 °F 64% 29.90 in 10.0 mi East 9.2 mph - N/A   Overcast
12:55 AM 49.5 °F 39.0 °F 67% 29.89 in 10.0 mi ENE 8.1 mph - N/A   Overcast
1:15 AM 49.1 °F 38.7 °F 67% 29.88 in 10.0 mi East 10.4 mph - N/A   Overcast
1:35 AM 49.5 °F 37.4 °F 63% 29.86 in 10.0 mi East 11.5 mph - N/A   Overcast
1:55 AM 49.5 °F 37.4 °F 63% 29.85 in 10.0 mi East 10.4 mph - N/A   Overcast
2:15 AM 49.6 °F 36.9 °F 61% 29.84 in 10.0 mi East 10.4 mph - N/A   Overcast
2:35 AM 50.0 °F 36.5 °F 60% 29.82 in 10.0 mi East 12.7 mph - N/A   Overcast
2:55 AM 50.0 °F 36.1 °F 59% 29.81 in 10.0 mi East 12.7 mph - N/A   Overcast
3:15 AM 50.0 °F 36.7 °F 60% 29.81 in 10.0 mi East 13.8 mph - N/A Rain Light Rain
3:35 AM 49.5 °F 37.4 °F 63% 29.81 in 10.0 mi East 11.5 mph 16.1 mph N/A   Overcast
3:55 AM 50.0 °F 37.9 °F 63% 29.80 in 10.0 mi East 11.5 mph - N/A   Mostly Cloudy
4:15 AM 49.6 °F 38.3 °F 65% 29.80 in 10.0 mi East 9.2 mph - N/A   Mostly Cloudy
4:35 AM 49.8 °F 38.3 °F 65% 29.80 in 10.0 mi East 10.4 mph - N/A   Overcast
4:55 AM 50.0 °F 38.7 °F 65% 29.80 in 10.0 mi East 10.4 mph - N/A   Overcast
5:15 AM 50.0 °F 38.8 °F 66% 29.79 in 10.0 mi East 10.4 mph - N/A   Overcast
5:35 AM 50.2 °F 39.2 °F 66% 29.78 in 10.0 mi East 11.5 mph - N/A   Overcast
5:55 AM 50.2 °F 39.4 °F 66% 29.77 in 10.0 mi East 11.5 mph - N/A   Overcast
6:15 AM 50.0 °F 39.7 °F 68% 29.76 in 10.0 mi ESE 11.5 mph - N/A   Overcast
6:35 AM 50.2 °F 40.1 °F 68% 29.75 in 10.0 mi East 11.5 mph - N/A   Overcast
6:55 AM 50.5 °F 40.5 °F 68% 29.75 in 10.0 mi East 13.8 mph - N/A   Overcast
7:15 AM 51.1 °F 41.0 °F 68% 29.74 in 10.0 mi ESE 12.7 mph - N/A   Overcast
7:35 AM 50.9 °F 41.0 °F 69% 29.73 in 10.0 mi ESE 12.7 mph - N/A   Mostly Cloudy
7:55 AM 51.4 °F 40.8 °F 67% 29.73 in 10.0 mi ESE 13.8 mph - N/A   Scattered Clouds
8:15 AM 53.1 °F 41.2 °F 64% 29.73 in 10.0 mi ESE 13.8 mph 21.9 mph N/A   Scattered Clouds
8:35 AM 53.2 °F 41.2 °F 64% 29.73 in 10.0 mi SE 17.3 mph - N/A   Scattered Clouds
8:55 AM 55.8 °F 41.7 °F 59% 29.73 in 10.0 mi SE 16.1 mph - N/A   Clear
9:15 AM 58.3 °F 41.4 °F 53% 29.72 in 10.0 mi SE 19.6 mph 24.2 mph N/A   Clear
9:35 AM 61.5 °F 41.2 °F 47% 29.71 in 10.0 mi SSE 17.3 mph 23.0 mph N/A   Clear
9:55 AM 62.6 °F 41.5 °F 46% 29.70 in 10.0 mi SSE 19.6 mph 29.9 mph N/A   Clear
10:15 AM 62.1 °F 42.4 °F 49% 29.69 in 10.0 mi South 13.8 mph 21.9 mph N/A   Scattered Clouds
10:35 AM 63.9 °F 42.8 °F 46% 29.68 in 10.0 mi South 15.0 mph 20.7 mph N/A   Mostly Cloudy
10:55 AM 65.5 °F 41.9 °F 42% 29.67 in 10.0 mi SSE 13.8 mph 29.9 mph N/A   Scattered Clouds
11:15 AM 67.6 °F 42.4 °F 40% 29.66 in 10.0 mi SSE 19.6 mph - N/A   Clear
11:35 AM 68.9 °F 42.6 °F 39% 29.65 in 10.0 mi SSE 15.0 mph - N/A   Clear
11:55 AM 71.8 °F 42.4 °F 35% 29.63 in 10.0 mi SSE 20.7 mph 25.3 mph N/A   Clear
12:15 PM 72.7 °F 43.0 °F 34% 29.62 in 10.0 mi SSE 19.6 mph 27.6 mph N/A   Clear
12:35 PM 74.5 °F 44.2 °F 34% 29.62 in 10.0 mi South 16.1 mph 23.0 mph N/A   Clear
12:55 PM 76.6 °F 41.7 °F 29% 29.61 in 10.0 mi SSE 19.6 mph 25.3 mph N/A   Clear
1:15 PM 76.5 °F 42.6 °F 30% 29.60 in 10.0 mi SSE 23.0 mph 27.6 mph N/A   Clear
1:35 PM 77.7 °F 42.3 °F 28% 29.59 in 10.0 mi South 18.4 mph 26.5 mph N/A   Clear
1:55 PM 77.9 °F 41.9 °F 28% 29.58 in 10.0 mi South 24.2 mph 29.9 mph N/A   Clear
2:15 PM 79.7 °F 39.4 °F 24% 29.56 in 10.0 mi SSE 19.6 mph 28.8 mph N/A   Clear
2:35 PM 79.5 °F 40.5 °F 25% 29.55 in 10.0 mi SSE 20.7 mph 26.5 mph N/A   Clear
2:55 PM 79.2 °F 33.4 °F 19% 29.54 in 10.0 mi South 27.6 mph 34.5 mph N/A   Clear
3:15 PM 78.6 °F 34.9 °F 21% 29.53 in 10.0 mi South 21.9 mph 32.2 mph N/A   Clear
3:35 PM 80.2 °F 31.5 °F 17% 29.53 in 10.0 mi SSE 25.3 mph 38.0 mph N/A   Clear
3:55 PM 81.5 °F 32.9 °F 17% 29.52 in 10.0 mi South 20.7 mph 33.4 mph N/A   Clear
4:15 PM 81.0 °F 32.2 °F 17% 29.51 in 10.0 mi South 19.6 mph 31.1 mph N/A   Clear
4:35 PM 80.4 °F 30.0 °F 16% 29.50 in 10.0 mi South 28.8 mph 34.5 mph N/A   Clear
4:55 PM 79.0 °F 33.4 °F 19% 29.50 in 10.0 mi South 19.6 mph 31.1 mph N/A   Clear
5:15 PM 79.9 °F 31.3 °F 17% 29.50 in 10.0 mi South 20.7 mph 27.6 mph N/A   Clear
5:35 PM 79.0 °F 32.9 °F 19% 29.50 in 10.0 mi South 17.3 mph 21.9 mph N/A   Scattered Clouds
5:55 PM 78.8 °F 31.3 °F 18% 29.50 in 10.0 mi South 18.4 mph 21.9 mph N/A   Scattered Clouds
6:15 PM 77.9 °F 31.6 °F 19% 29.50 in 10.0 mi South 16.1 mph 24.2 mph N/A   Mostly Cloudy
6:35 PM 78.4 °F 32.0 °F 18% 29.49 in 10.0 mi SSE 12.7 mph 25.3 mph N/A   Mostly Cloudy
6:55 PM 76.8 °F 33.4 °F 21% 29.50 in 10.0 mi SSE 12.7 mph 18.4 mph N/A   Scattered Clouds
7:15 PM 76.3 °F 33.4 °F 21% 29.50 in 10.0 mi South 11.5 mph - N/A   Mostly Cloudy
7:35 PM 74.5 °F 36.7 °F 25% 29.50 in 10.0 mi SSE 10.4 mph - N/A   Overcast
7:55 PM 74.7 °F 37.8 °F 26% 29.51 in 10.0 mi SSE 12.7 mph - N/A   Overcast
8:15 PM 73.6 °F 39.9 °F 30% 29.52 in 10.0 mi SSE 10.4 mph - N/A Rain Light Rain
8:35 PM 71.2 °F 43.5 °F 37% 29.53 in 10.0 mi SSE 16.1 mph - N/A Rain Light Rain
8:55 PM 70.2 °F 44.4 °F 40% 29.53 in 10.0 mi South 8.1 mph - N/A   Mostly Cloudy
9:15 PM 69.6 °F 45.1 °F 41% 29.53 in 10.0 mi South 10.4 mph - N/A   Mostly Cloudy
9:35 PM 69.8 °F 45.9 °F 42% 29.56 in 10.0 mi SW 11.5 mph 16.1 mph N/A   Mostly Cloudy
9:55 PM 67.6 °F 49.1 °F 51% 29.60 in 7.0 mi SW 15.0 mph 19.6 mph N/A Rain Rain
10:15 PM 65.1 °F 52.2 °F 63% 29.60 in 10.0 mi WNW 10.4 mph - N/A Rain Rain
10:35 PM 64.4 °F 54.5 °F 70% 29.60 in 10.0 mi WNW 13.8 mph 21.9 mph N/A Rain Light Rain
10:55 PM 62.6 °F 54.0 °F 73% 29.62 in 10.0 mi WNW 19.6 mph 31.1 mph N/A Rain Light Rain
11:15 PM 59.4 °F 50.0 °F 71% 29.65 in 10.0 mi WNW 11.5 mph 21.9 mph N/A Rain Light Rain
11:35 PM 58.3 °F 49.3 °F 72% 29.65 in 10.0 mi West 6.9 mph - N/A   Mostly Cloudy
11:55 PM 57.9 °F 49.1 °F 72% 29.67 in 10.0 mi West 3.5 mph - N/A   Mostly Cloudy